This is the latest recevied weather packets stored in our database for station/object OZ0AJ-13. If no packets are shown the sender has not sent any weather packets the latest 10 day(s).
| Time | Temp. | Humidity | Pressure | Rain* | Wind** | Luminosity | Snow |
|---|---|---|---|---|---|---|---|
| 1777660231 | 20.56° C | 41% | 1022.9 hPa | 0 mm | - | - | - |
| 1777659627 | 22.22° C | 38% | 1023 hPa | 0 mm | - | - | - |
| 1777659023 | 22.78° C | 36% | 1023 hPa | 0 mm | - | - | - |
| 1777658419 | 23.33° C | 35% | 1023 hPa | 0 mm | - | - | - |
| 1777657835 | 23.33° C | 34% | 1023.1 hPa | 0 mm | - | - | - |
| 1777657231 | 23.33° C | 34% | 1023.1 hPa | 0 mm | - | - | - |
| 1777656627 | 23.33° C | 34% | 1023.3 hPa | 0 mm | - | - | - |
| 1777656023 | 22.78° C | 34% | 1023.5 hPa | 0 mm | - | - | - |
| 1777654232 | 23.33° C | 33% | 1023.9 hPa | 0 mm | - | - | - |
| 1777653628 | 22.22° C | 34% | 1023.9 hPa | 0 mm | - | - | - |
| 1777653024 | 21.67° C | 34% | 1024.3 hPa | 0 mm | - | - | - |
| 1777652420 | 21.67° C | 33% | 1024.5 hPa | 0 mm | - | - | - |
| 1777651816 | 21.67° C | 33% | 1024.6 hPa | 0 mm | - | - | - |
| 1777651233 | 21.67° C | 34% | 1024.8 hPa | 0 mm | - | - | - |
| 1777650628 | 21.11° C | 34% | 1025 hPa | 0 mm | - | - | - |
| 1777650024 | 21.11° C | 35% | 1025.1 hPa | 0 mm | - | - | - |
| 1777649420 | 21.67° C | 34% | 1025.2 hPa | 0 mm | - | - | - |
| 1777648817 | 21.67° C | 34% | 1025.4 hPa | 0 mm | - | - | - |
| 1777648233 | 21.67° C | 34% | 1025.6 hPa | 0 mm | - | - | - |
| 1777647629 | 21.11° C | 34% | 1025.6 hPa | 0 mm | - | - | - |
| 1777647025 | 21.67° C | 34% | 1025.8 hPa | 0 mm | - | - | - |
| 1777646421 | 21.67° C | 34% | 1025.8 hPa | 0 mm | - | - | - |
| 1777645817 | 21.67° C | 34% | 1025.9 hPa | 0 mm | - | - | - |
| 1777645233 | 21.67° C | 34% | 1026 hPa | 0 mm | - | - | - |
| 1777644629 | 21.67° C | 34% | 1026.3 hPa | 0 mm | - | - | - |
* Rain latest hour (hover to see other rain measurements)
** Current wind speed in m/s (hover to see current wind gust speed)